DW5979 Weather Reports


time (UTC)temp
C
wind
direction
speed
KPH
gust
KPH
rain 1hr
cm
rain 24hr
cm
rain mn
cm
humidity
%
barometer
mb
20260506001946 13 44 0.0 1.6 0.00 0.36 0.36 96 1007.0
20260506001443 13 117 0.0 3.2 0.00 0.36 0.36 95 1006.7
20260506000940 13 111 0.0 3.2 0.00 0.36 0.36 95 1006.7
20260506000438 13 105 1.6 1.6 0.00 0.36 0.36 95 1006.6
20260505235935 13 246 1.6 3.2 0.00 0.36 0.36 94 1006.7
20260505235433 13 39 0.0 3.2 0.00 0.36 0.36 94 1006.6
20260505234929 14 141 0.0 1.6 0.00 0.36 0.36 94 1006.6
20260505234427 14 327 3.2 3.2 0.00 0.36 0.36 93 1006.7
20260505233923 14 327 0.0 3.2 0.00 0.36 0.36 93 1006.6
20260505233421 14 101 3.2 3.2 0.00 0.36 0.36 94 1006.6
20260505232918 14 315 0.0 3.2 0.00 0.36 0.36 93 1006.4
20260505232416 14 133 0.0 3.2 0.00 0.36 0.36 92 1006.4
20260505231912 14 322 0.0 1.6 0.00 0.36 0.36 92 1006.3
20260505231410 14 37 0.0 3.2 0.00 0.36 0.36 91 1006.3
20260505230908 15 315 0.0 6.4 0.13 0.36 0.36 89 1005.8
20260505230406 15 216 6.4 8.0 0.18 0.36 0.36 84 1006.8
20260505225902 15 262 6.4 14.5 0.18 0.33 0.33 83 1006.8
20260505225359 15 263 9.7 20.9 0.05 0.33 0.33 81 1006.7
20260505224854 16 256 9.7 29.0 0.00 0.30 0.30 79 1006.6
20260505224352 16 258 14.5 27.4 0.00 0.30 0.30 78 1006.2
20260505223849 15 297 25.7 32.2 0.05 0.30 0.30 79 1006.0
20260505223346 15 278 9.7 11.3 0.05 0.30 0.30 82 1006.0
20260505222842 15 306 17.7 22.5 0.00 0.30 0.30 82 1005.8
20260505222338 15 257 6.4 25.7 0.00 0.30 0.30 82 1006.0
20260505221835 15 295 9.7 14.5 0.00 0.30 0.30 84 1005.7
20260505221332 15 280 4.8 11.3 0.05 0.30 0.30 86 1005.8
20260505220829 15 302 9.7 24.1 0.18 0.30 0.30 86 1005.9
20260505220326 15 305 20.9 30.6 0.23 0.28 0.28 86 1006.0
20260505215824 15 273 16.1 30.6 0.66 0.28 0.28 88 1005.9
20260505215322 15 293 27.4 33.8 1.45 0.23 0.23 89 1005.8
20260505214819 16 293 27.4 45.1 0.97 0.15 0.15 82 1005.5
20260505214317 21 271 12.9 35.4 0.00 0.00 0.00 54 1004.9
20260505213813 23 280 14.5 17.7 0.00 0.00 0.00 41 1003.8
20260505213312 24 108 9.7 12.9 0.00 0.00 0.00 40 1002.9
20260505212807 24 269 0.0 6.4 0.00 0.00 0.00 37 1002.8
20260505212306 25 242 8.0 19.3 0.00 0.00 0.00 34 1002.5
20260505211800 25 249 11.3 20.9 0.00 0.00 0.00 34 1002.4
20260505211258 25 267 8.0 19.3 0.00 0.00 0.00 33 1002.6
20260505210754 25 221 8.0 11.3 0.00 0.00 0.00 34 1002.7
20260505210252 25 271 6.4 16.1 0.00 0.00 0.00 34 1002.4
20260505205749 25 255 8.0 17.7 0.00 0.00 0.00 34 1002.4
20260505205247 25 258 8.0 17.7 0.00 0.00 0.00 34 1002.3
20260505204743 25 229 6.4 9.7 0.00 0.00 0.00 34 1002.5
20260505204241 25 255 4.8 17.7 0.00 0.00 0.00 34 1002.3
20260505203738 25 174 8.0 14.5 0.00 0.00 0.00 35 1002.6
20260505203235 25 244 11.3 19.3 0.00 0.00 0.00 34 1002.6
20260505202731 25 226 17.7 24.1 0.00 0.00 0.00 34 1002.4
20260505202227 25 203 9.7 17.7 0.00 0.00 0.00 33 1002.3
20260505201723 25 268 11.3 14.5 0.00 0.00 0.00 34 1002.3
20260505201222 25 205 6.4 20.9 0.00 0.00 0.00 34 1002.4
20260505200719 25 245 6.4 25.7 0.00 0.00 0.00 34 1002.5
20260505200216 25 250 4.8 20.9 0.00 0.00 0.00 34 1002.5
20260505195712 26 249 14.5 25.7 0.00 0.00 0.00 32 1002.6
20260505195209 26 134 11.3 32.2 0.00 0.00 0.00 33 1002.5
20260505194707 26 301 16.1 20.9 0.00 0.00 0.00 33 1002.7
20260505194203 26 101 4.8 11.3 0.00 0.00 0.00 34 1002.5
20260505193659 26 258 0.0 14.5 0.00 0.00 0.00 33 1002.7
20260505193156 26 102 8.0 30.6 0.00 0.00 0.00 34 1002.5
20260505192655 26 218 6.4 11.3 0.00 0.00 0.00 33 1002.7
20260505192152 26 251 9.7 24.1 0.00 0.00 0.00 34 1002.7
20260505191650 25 303 6.4 17.7 0.00 0.00 0.00 35 1002.8
20260505191148 25 225 8.0 19.3 0.00 0.00 0.00 36 1002.7
20260505190644 25 239 9.7 22.5 0.00 0.00 0.00 36 1003.1
20260505190143 25 238 19.3 24.1 0.00 0.00 0.00 35 1003.2
20260505185641 25 160 1.6 24.1 0.00 0.00 0.00 36 1003.1
20260505185137 26 227 11.3 19.3 0.00 0.00 0.00 35 1003.2
20260505184633 26 209 3.2 20.9 0.00 0.00 0.00 36 1003.4
20260505184131 26 260 3.2 14.5 0.00 0.00 0.00 36 1003.3
20260505183627 26 187 14.5 24.1 0.00 0.00 0.00 34 1003.3
20260505183125 26 183 6.4 22.5 0.00 0.00 0.00 37 1003.6
20260505182621 26 243 17.7 33.8 0.00 0.00 0.00 36 1003.6
20260505182118 26 226 8.0 16.1 0.00 0.00 0.00 36 1003.4
20260505181615 25 274 6.4 11.3 0.00 0.00 0.00 38 1003.6
20260505181112 26 209 8.0 12.9 0.00 0.00 0.00 37 1003.8
20260505180608 26 289 9.7 11.3 0.00 0.00 0.00 36 1003.7
20260505180106 25 189 6.4 14.5 0.00 0.00 0.00 38 1003.8
20260505175601 25 249 6.4 16.1 0.00 0.00 0.00 37 1004.0
20260505175058 25 229 9.7 19.3 0.00 0.00 0.00 37 1003.9
20260505174555 25 253 14.5 20.9 0.00 0.00 0.00 36 1004.2
20260505174050 25 181 4.8 17.7 0.00 0.00 0.00 39 1004.1
20260505173548 26 203 4.8 9.7 0.00 0.00 0.00 37 1004.1
20260505173044 25 120 4.8 14.5 0.00 0.00 0.00 37 1004.3
20260505172542 25 190 12.9 20.9 0.00 0.00 0.00 37 1004.5
20260505172038 24 250 9.7 20.9 0.00 0.00 0.00 38 1004.5
20260505171533 24 196 4.8 14.5 0.00 0.00 0.00 38 1004.4
20260505171030 24 220 8.0 29.0 0.00 0.00 0.00 39 1004.5
20260505170527 24 162 3.2 22.5 0.00 0.00 0.00 38 1004.6
20260505170023 24 273 14.5 17.7 0.00 0.00 0.00 38 1004.9
20260505165519 24 268 20.9 24.1 0.00 0.00 0.00 38 1004.8
20260505165015 24 336 4.8 17.7 0.00 0.00 0.00 39 1005.0
20260505164511 24 213 0.0 16.1 0.00 0.00 0.00 39 1005.1
20260505164009 24 276 16.1 20.9 0.00 0.00 0.00 40 1005.1
20260505163507 23 276 12.9 27.4 0.00 0.00 0.00 39 1005.1
20260505163003 23 264 6.4 14.5 0.00 0.00 0.00 39 1005.2
20260505162457 23 156 6.4 9.7 0.00 0.00 0.00 40 1005.2
20260505161953 23 258 8.0 25.7 0.00 0.00 0.00 39 1005.4
20260505161450 23 143 6.4 19.3 0.00 0.00 0.00 42 1005.7
20260505160948 23 272 16.1 20.9 0.00 0.00 0.00 40 1005.6
20260505160446 23 207 6.4 16.1 0.00 0.00 0.00 41 1005.6
20260505152922 21 150 9.7 11.3 0.00 0.00 0.00 44 1006.2
20260505152419 21 258 6.4 9.7 0.00 0.00 0.00 47 1006.4
20260505151919 20 338 0.0 6.4 0.00 0.00 0.00 46 1006.7
20260505151415 20 247 4.8 16.1 0.00 0.00 0.00 48 1006.4
20260505150913 18 139 9.7 11.3 0.00 0.00 0.00 49 1006.7
20260505150410 18 147 4.8 12.9 0.00 0.00 0.00 49 1006.7
20260505140334 17 175 3.2 8.0 0.00 0.00 0.00 51 1006.7
20260505130258 15 208 3.2 4.8 0.00 0.00 0.00 58 1006.8
20260505124748 15 182 0.0 4.8 0.00 0.00 0.00 57 1007.2
20260505124245 15 212 1.6 4.8 0.00 0.00 0.00 56 1007.2
20260505123740 14 127 3.2 6.4 0.00 0.00 0.00 56 1006.8
20260505123237 14 120 3.2 4.8 0.00 0.00 0.00 56 1007.0
20260505122734 15 156 3.2 4.8 0.00 0.00 0.00 57 1007.1
20260505122231 15 155 0.0 8.0 0.00 0.00 0.00 56 1007.3
20260505121728 15 122 4.8 8.0 0.00 0.00 0.00 55 1007.4
20260505121224 14 110 3.2 3.2 0.00 0.00 0.00 59 1007.1
20260505120721 13 89 3.2 4.8 0.00 0.00 0.00 62 1007.4
20260505120217 14 102 6.4 6.4 0.00 0.00 0.00 61 1007.5
20260505115715 12 136 3.2 3.2 0.00 0.00 0.00 67 1007.7
20260505115214 11 89 0.0 1.6 0.00 0.00 0.00 80 1007.8
20260505114711 10 107 3.2 4.8 0.00 0.00 0.00 82 1007.8
20260505114206 10 82 3.2 4.8 0.00 0.00 0.00 83 1007.8
20260505113703 10 96 4.8 6.4 0.00 0.00 0.00 82 1007.6
20260505113200 10 70 3.2 4.8 0.00 0.00 0.00 84 1007.7
20260505112656 8 99 3.2 3.2 0.00 0.00 0.00 86 1007.7
20260505112154 7 58 1.6 3.2 0.00 0.00 0.00 90 1007.7
20260505111653 7 84 1.6 4.8 0.00 0.00 0.00 89 1007.7
20260505111149 7 80 3.2 4.8 0.00 0.00 0.00 89 1007.7
20260505110646 7 72 3.2 4.8 0.00 0.00 0.00 92 1007.5
20260505110143 6 92 4.8 6.4 0.00 0.00 0.00 92 1007.5
20260505102119 5 91 3.2 6.4 0.00 0.00 0.00 94 1007.4
20260505101618 5 86 3.2 4.8 0.00 0.00 0.00 94 1007.5
20260505101113 5 101 3.2 3.2 0.00 0.00 0.00 95 1007.6
20260505100610 5 89 3.2 3.2 0.00 0.00 0.00 95 1007.7
20260505100107 4 89 6.4 6.4 0.00 0.00 0.00 95 1007.4
20260505095603 4 99 4.8 6.4 0.00 0.00 0.00 95 1007.2
20260505095100 3 94 6.4 6.4 0.00 0.00 0.00 94 1007.2
20260505094556 3 97 8.0 8.0 0.00 0.00 0.00 94 1007.3
20260505094052 4 92 6.4 8.0 0.00 0.00 0.00 94 1007.5
20260505093549 4 93 8.0 8.0 0.00 0.00 0.00 95 1007.5
20260505093046 4 94 3.2 6.4 0.00 0.00 0.00 95 1007.2
20260505092544 3 107 4.8 6.4 0.00 0.00 0.00 95 1007.5
20260505092042 3 96 6.4 8.0 0.00 0.00 0.00 95 1007.5
20260505091538 3 91 6.4 8.0 0.00 0.00 0.00 95 1007.6
20260505091037 3 89 4.8 6.4 0.00 0.00 0.00 95 1007.4
20260505090534 3 88 4.8 6.4 0.00 0.00 0.00 95 1007.6
20260505090032 3 99 4.8 6.4 0.00 0.00 0.00 95 1007.5
20260505085530 3 91 4.8 6.4 0.00 0.00 0.00 95 1007.3
20260505085028 3 97 6.4 8.0 0.00 0.00 0.00 94 1007.5
20260505084526 3 82 3.2 6.4 0.00 0.00 0.00 95 1007.5
20260505084023 3 92 3.2 8.0 0.00 0.00 0.00 95 1007.5
20260505083520 3 93 6.4 6.4 0.00 0.00 0.00 95 1007.4
20260505083017 3 83 4.8 6.4 0.00 0.00 0.00 95 1007.5
20260505082512 3 99 6.4 8.0 0.00 0.00 0.00 94 1007.6
20260505082009 3 97 9.7 9.7 0.00 0.00 0.00 95 1007.6
20260505081506 3 79 4.8 4.8 0.00 0.00 0.00 95 1007.6
20260505081003 3 87 3.2 8.0 0.00 0.00 0.00 94 1007.6
20260505080459 3 108 8.0 9.7 0.00 0.00 0.00 94 1007.8
20260505075955 3 104 3.2 8.0 0.00 0.00 0.00 95 1007.8
20260505075451 3 100 4.8 6.4 0.00 0.00 0.00 95 1007.7
20260505074949 3 101 3.2 6.4 0.00 0.00 0.00 94 1007.8
20260505074447 3 96 3.2 6.4 0.00 0.00 0.00 94 1007.8
20260505073943 3 91 4.8 6.4 0.00 0.00 0.00 94 1007.9
20260505073441 3 94 4.8 8.0 0.00 0.00 0.00 94 1008.0
20260505072938 3 93 3.2 6.4 0.00 0.00 0.00 94 1007.8
20260505072434 3 98 4.8 6.4 0.00 0.00 0.00 94 1007.8
20260505071930 3 85 3.2 9.7 0.00 0.00 0.00 94 1007.7
20260505071426 3 87 3.2 6.4 0.00 0.00 0.00 94 1007.6
20260505070925 3 95 3.2 6.4 0.00 0.00 0.00 93 1007.8
20260505070421 3 96 6.4 8.0 0.00 0.00 0.00 94 1007.7
20260505065917 3 89 4.8 8.0 0.00 0.00 0.00 93 1007.8
20260505065413 3 94 3.2 9.7 0.00 0.00 0.00 93 1007.6
20260505064910 3 91 6.4 6.4 0.00 0.00 0.00 93 1007.8
20260505064407 3 87 4.8 8.0 0.00 0.00 0.00 93 1007.7
20260505063906 3 85 3.2 6.4 0.00 0.00 0.00 93 1007.9
20260505063402 3 86 3.2 6.4 0.00 0.00 0.00 93 1007.7
20260505062858 3 91 3.2 4.8 0.00 0.00 0.00 93 1007.6
20260505062355 3 85 1.6 6.4 0.00 0.00 0.00 92 1007.7
20260505061852 3 94 3.2 3.2 0.00 0.00 0.00 92 1007.6
20260505061351 3 96 3.2 6.4 0.00 0.00 0.00 93 1007.7
20260505060848 3 92 4.8 8.0 0.00 0.00 0.00 92 1007.7
20260505060344 3 85 4.8 8.0 0.00 0.00 0.00 92 1007.9
20260505055840 3 98 6.4 8.0 0.00 0.00 0.00 92 1007.7
20260505055336 3 98 6.4 8.0 0.00 0.00 0.00 92 1007.9
20260505054834 3 88 4.8 8.0 0.00 0.00 0.00 92 1007.6
20260505054331 3 96 4.8 6.4 0.00 0.00 0.00 92 1007.8
20260505053829 3 84 3.2 6.4 0.00 0.00 0.00 91 1007.6
20260505053326 3 99 3.2 8.0 0.00 0.00 0.00 91 1007.7
20260505052822 4 95 6.4 8.0 0.00 0.00 0.00 91 1007.8
20260505052319 4 95 6.4 6.4 0.00 0.00 0.00 91 1007.6
20260505051817 4 99 3.2 6.4 0.00 0.00 0.00 91 1007.5
20260505051314 4 73 3.2 6.4 0.00 0.00 0.00 91 1007.4
20260505050812 5 94 3.2 4.8 0.00 0.00 0.00 90 1007.6
20260505050310 5 71 3.2 6.4 0.00 0.00 0.00 91 1007.7
20260505041740 5 85 4.8 6.4 0.00 0.00 0.00 89 1007.3
20260505041237 5 98 4.8 6.4 0.00 0.00 0.00 89 1007.2
20260505040734 5 91 4.8 8.0 0.00 0.00 0.00 88 1007.3
20260505040232 5 91 3.2 8.0 0.00 0.00 0.00 88 1007.3
20260505035729 5 96 4.8 6.4 0.00 0.08 0.08 88 1007.1
20260505035224 5 105 4.8 4.8 0.00 0.08 0.08 87 1007.2
20260505034722 6 102 3.2 8.0 0.00 0.08 0.08 87 1007.2
20260505034219 6 105 6.4 6.4 0.00 0.08 0.08 87 1007.1
20260505033715 6 93 3.2 8.0 0.00 0.08 0.08 87 1006.9
20260505033213 6 96 3.2 6.4 0.00 0.08 0.08 86 1007.1
20260505032711 6 97 3.2 8.0 0.00 0.08 0.08 86 1007.2
20260505032206 6 96 6.4 6.4 0.00 0.08 0.08 86 1007.0
20260505031704 6 95 3.2 6.4 0.00 0.08 0.08 86 1007.1
20260505031200 6 108 4.8 6.4 0.00 0.08 0.08 86 1007.1
20260505030657 6 99 3.2 6.4 0.00 0.08 0.08 86 1007.0
20260505030153 6 99 6.4 6.4 0.00 0.08 0.08 85 1007.1
20260505025649 7 93 3.2 6.4 0.00 0.08 0.08 84 1007.2
20260505025148 7 99 3.2 4.8 0.00 0.08 0.08 84 1007.1
20260505024645 7 105 6.4 8.0 0.00 0.08 0.08 84 1007.0
20260505024142 7 83 4.8 6.4 0.00 0.08 0.08 84 1007.0
20260505023639 7 104 6.4 8.0 0.00 0.08 0.08 84 1007.3
20260505023137 7 99 3.2 6.4 0.00 0.08 0.08 83 1007.6
20260505022634 7 83 3.2 4.8 0.00 0.08 0.08 83 1007.1
20260505022131 8 79 1.6 3.2 0.00 0.08 0.08 82 1007.2
20260505021627 8 97 1.6 4.8 0.00 0.08 0.08 82 1007.5
20260505021124 8 93 3.2 6.4 0.00 0.08 0.08 81 1007.3
20260505020620 8 106 1.6 6.4 0.00 0.08 0.08 80 1007.4
20260505020116 8 102 3.2 6.4 0.00 0.08 0.08 81 1007.6
20260505015613 8 111 4.8 8.0 0.00 0.08 0.08 80 1007.5
20260505015110 8 69 1.6 6.4 0.00 0.08 0.08 80 1007.6
20260505014606 8 98 6.4 6.4 0.00 0.08 0.08 80 1007.7
20260505014103 8 92 3.2 3.2 0.00 0.08 0.08 80 1007.5
20260505013601 8 89 3.2 4.8 0.00 0.08 0.08 80 1007.3
20260505013058 8 109 3.2 4.8 0.00 0.08 0.08 79 1007.3
20260505012556 8 89 3.2 3.2 0.00 0.08 0.08 78 1007.1
20260505012053 9 89 3.2 4.8 0.00 0.08 0.08 78 1007.1
20260505011548 8 166 0.0 3.2 0.00 0.08 0.08 79 1007.3
20260505011046 9 111 3.2 6.4 0.00 0.08 0.08 79 1007.1
20260505010541 9 82 3.2 4.8 0.00 0.08 0.08 78 1007.1
20260505010038 9 92 4.8 6.4 0.00 0.08 0.08 78 1007.1
20260505005534 10 101 4.8 6.4 0.00 0.08 0.08 77 1006.8
20260505005032 10 89 3.2 6.4 0.00 0.08 0.08 74 1006.9
20260505004529 10 87 3.2 4.8 0.00 0.08 0.08 72 1006.8
20260505004026 10 104 1.6 4.8 0.00 0.08 0.08 74 1007.0
20260505003523 10 103 6.4 6.4 0.00 0.08 0.08 75 1006.8
20260505003020 10 91 4.8 4.8 0.00 0.08 0.08 74 1006.7
20260505002520 10 102 6.4 6.4 0.00 0.08 0.08 74 1006.7